User: anonymous   Login
Location: Unspecified
(0.0000°N, 0.0000°E)
Time: 03:34:13
(UTC+00:00)
Language:

Landsat 3 - Orbit

View from above orbital plane
View from above orbital plane
View from above satellite
View from above satellite

Ground track
Ground track

The orbit data is extracted from the following two-line orbital elements,

1 10702U 78026A   18023.54796959 -.00000234  00000-0 -13858-3 0  9990
2 10702  98.7661  46.7642 0014092 329.0802 144.5475 13.96660598 33669
Epoch (UTC): 23 January 2018 13:09:04
Eccentricity: 0.0014092
inclination: 98.7661°
perigee height: 895 km
apogee height: 915 km
right ascension of ascending node: 46.7642°
argument of perigee: 329.0802°
revolutions per day: 13.96660598
mean anomaly at epoch: 144.5475°
orbit number at epoch: 3366

The dashed part of the orbit path shows where the satellite is in the earth's shadow,  

DLR